Year,Month,Day,Hour,Minute,Value (Times are PST for temperature in C)
2012,07,05,00,00,11.60
2012,07,05,00,01,11.60
2012,07,05,00,02,11.60
2012,07,05,00,04,11.60
2012,07,05,00,05,11.50
2012,07,05,00,06,11.50
2012,07,05,00,07,11.50
2012,07,05,00,09,11.40
2012,07,05,00,10,11.40
2012,07,05,00,12,11.40
2012,07,05,00,13,11.40
2012,07,05,00,14,11.40
2012,07,05,00,15,11.30
2012,07,05,00,17,11.30
2012,07,05,00,18,11.30
2012,07,05,00,20,11.20
2012,07,05,00,21,11.20
2012,07,05,00,22,11.20
2012,07,05,00,23,11.20
2012,07,05,00,25,11.20
2012,07,05,00,26,11.10
2012,07,05,00,28,11.10
2012,07,05,00,29,11.10
2012,07,05,00,30,11.10
2012,07,05,00,32,11.00
2012,07,05,00,33,11.00
2012,07,05,00,34,11.00
2012,07,05,00,36,11.00
2012,07,05,00,37,11.00
2012,07,05,00,38,11.00
2012,07,05,00,40,11.00
2012,07,05,00,41,11.10
2012,07,05,00,42,11.10
2012,07,05,00,44,11.10
2012,07,05,00,45,11.20
2012,07,05,00,46,11.20
2012,07,05,00,48,11.20
2012,07,05,00,49,11.20
2012,07,05,00,51,11.10
2012,07,05,00,52,11.10
2012,07,05,00,53,11.10
2012,07,05,00,55,11.10
2012,07,05,00,56,11.00
2012,07,05,00,57,11.00
2012,07,05,00,59,10.90
2012,07,05,01,01,10.90
2012,07,05,01,03,10.80
2012,07,05,01,04,10.80
2012,07,05,01,05,10.80
2012,07,05,01,06,10.70
2012,07,05,01,08,10.70
2012,07,05,01,09,10.70
2012,07,05,01,10,10.70
2012,07,05,01,11,10.60
2012,07,05,01,12,10.60
2012,07,05,01,13,10.60
2012,07,05,01,14,10.60
2012,07,05,01,16,10.50
2012,07,05,01,17,10.40
2012,07,05,01,18,10.40
2012,07,05,01,19,10.40
2012,07,05,01,20,10.40
2012,07,05,01,21,10.40
2012,07,05,01,22,10.30
2012,07,05,01,24,10.30
2012,07,05,01,25,10.30
2012,07,05,01,27,10.20
2012,07,05,01,28,10.20
2012,07,05,01,29,10.20
2012,07,05,01,31,10.10
2012,07,05,01,33,10.10
2012,07,05,01,35,10.00
2012,07,05,01,37,10.00
2012,07,05,01,38,9.90
2012,07,05,01,39,9.90
2012,07,05,01,40,9.90
2012,07,05,01,41,9.90
2012,07,05,01,42,9.90
2012,07,05,01,43,9.90
2012,07,05,01,44,9.80
2012,07,05,01,45,9.80
2012,07,05,01,46,9.80
2012,07,05,01,47,9.80
2012,07,05,01,49,9.80
2012,07,05,01,50,9.80
2012,07,05,01,51,9.80
2012,07,05,01,52,9.70
2012,07,05,01,53,9.70
2012,07,05,01,54,9.70
2012,07,05,01,55,9.70
2012,07,05,01,56,9.70
2012,07,05,01,57,9.70
2012,07,05,01,59,9.60
2012,07,05,02,00,9.60
2012,07,05,02,01,9.60
2012,07,05,02,02,9.60
2012,07,05,02,04,9.60
2012,07,05,02,06,9.50
2012,07,05,02,07,9.50
2012,07,05,02,08,9.50
2012,07,05,02,10,9.50
2012,07,05,02,11,9.40
2012,07,05,02,13,9.40
2012,07,05,02,14,9.40
2012,07,05,02,15,9.40
2012,07,05,02,16,9.40
2012,07,05,02,17,9.30
2012,07,05,02,18,9.30
2012,07,05,02,19,9.30
2012,07,05,02,20,9.30
2012,07,05,02,21,9.30
2012,07,05,02,22,9.30
2012,07,05,02,23,9.30
2012,07,05,02,25,9.20
2012,07,05,02,27,9.20
2012,07,05,02,28,9.20
2012,07,05,02,29,9.20
2012,07,05,02,30,9.20
2012,07,05,02,31,9.20
2012,07,05,02,33,9.10
2012,07,05,02,34,9.10
2012,07,05,02,35,9.10
2012,07,05,02,36,9.10
2012,07,05,02,38,9.10
2012,07,05,02,39,9.10
2012,07,05,02,40,9.10
2012,07,05,02,41,9.10
2012,07,05,02,43,9.00
2012,07,05,02,44,9.00
2012,07,05,02,45,9.00
2012,07,05,02,46,9.00
2012,07,05,02,48,8.90
2012,07,05,02,49,8.90
2012,07,05,02,51,8.90
2012,07,05,02,52,8.90
2012,07,05,02,53,8.90
2012,07,05,02,54,8.90
2012,07,05,02,56,8.80
2012,07,05,02,58,8.80
2012,07,05,03,00,8.80
2012,07,05,03,01,8.80
2012,07,05,03,02,8.70
2012,07,05,03,03,8.70
2012,07,05,03,05,8.70
2012,07,05,03,06,8.70
2012,07,05,03,08,8.70
2012,07,05,03,09,8.60
2012,07,05,03,11,8.60
2012,07,05,03,13,8.60
2012,07,05,03,14,8.60
2012,07,05,03,16,8.60
2012,07,05,03,18,8.60
2012,07,05,03,19,8.50
2012,07,05,03,21,8.50
2012,07,05,03,23,8.50
2012,07,05,03,25,8.50
2012,07,05,03,27,8.50
2012,07,05,03,28,8.50
2012,07,05,03,30,8.50
2012,07,05,03,31,8.50
2012,07,05,03,32,8.50
2012,07,05,03,33,8.60
2012,07,05,03,35,8.50
2012,07,05,03,36,8.50
2012,07,05,03,37,8.50
2012,07,05,03,38,8.50
2012,07,05,03,40,8.50
2012,07,05,03,41,8.50
2012,07,05,03,43,8.50
2012,07,05,03,44,8.40
2012,07,05,03,45,8.50
2012,07,05,03,46,8.40
2012,07,05,03,48,8.40
2012,07,05,03,49,8.40
2012,07,05,03,50,8.40
2012,07,05,03,51,8.40
2012,07,05,03,53,8.40
2012,07,05,03,55,8.40
2012,07,05,03,56,8.30
2012,07,05,03,57,8.30
2012,07,05,03,58,8.30
2012,07,05,04,00,8.30
2012,07,05,04,01,8.30
2012,07,05,04,03,8.20
2012,07,05,04,04,8.20
2012,07,05,04,05,8.20
2012,07,05,04,07,8.20
2012,07,05,04,08,8.20
2012,07,05,04,10,8.10
2012,07,05,04,11,8.10
2012,07,05,04,12,8.10
2012,07,05,04,13,8.10
2012,07,05,04,14,8.00
2012,07,05,04,16,8.00
2012,07,05,04,17,7.90
2012,07,05,04,18,7.90
2012,07,05,04,19,7.90
2012,07,05,04,21,7.90
2012,07,05,04,22,7.80
2012,07,05,04,23,7.80
2012,07,05,04,25,7.80
2012,07,05,04,26,7.80
2012,07,05,04,27,7.80
2012,07,05,04,29,7.70
2012,07,05,04,30,7.70
2012,07,05,04,31,7.70
2012,07,05,04,32,7.70
2012,07,05,04,33,7.60
2012,07,05,04,34,7.60
2012,07,05,04,35,7.60
2012,07,05,04,36,7.60
2012,07,05,04,37,7.50
2012,07,05,04,38,7.50
2012,07,05,04,39,7.50
2012,07,05,04,40,7.50
2012,07,05,04,41,7.40
2012,07,05,04,42,7.40
2012,07,05,04,43,7.40
2012,07,05,04,44,7.40
2012,07,05,04,45,7.40
2012,07,05,04,47,7.40
2012,07,05,04,48,7.40
2012,07,05,04,49,7.40
2012,07,05,04,51,7.30
2012,07,05,04,52,7.30
2012,07,05,04,53,7.30
2012,07,05,04,54,7.30
2012,07,05,04,55,7.30
2012,07,05,04,56,7.30
2012,07,05,04,57,7.30
2012,07,05,04,58,7.30
2012,07,05,04,59,7.30
2012,07,05,05,00,7.30
2012,07,05,05,01,7.30
2012,07,05,05,04,7.30
2012,07,05,05,05,7.30
2012,07,05,05,06,7.30
2012,07,05,05,07,7.30
2012,07,05,05,08,7.30
2012,07,05,05,09,7.30
2012,07,05,05,10,7.30
2012,07,05,05,11,7.20
2012,07,05,05,12,7.20
2012,07,05,05,13,7.20
2012,07,05,05,14,7.20
2012,07,05,05,15,7.20
2012,07,05,05,16,7.20
2012,07,05,05,17,7.20
2012,07,05,05,18,7.20
2012,07,05,05,19,7.20
2012,07,05,05,20,7.20
2012,07,05,05,21,7.20
2012,07,05,05,22,7.20
2012,07,05,05,23,7.30
2012,07,05,05,24,7.30
2012,07,05,05,25,7.30
2012,07,05,05,26,7.30
2012,07,05,05,27,7.30
2012,07,05,05,28,7.30
2012,07,05,05,29,7.30
2012,07,05,05,30,7.30
2012,07,05,05,31,7.30
2012,07,05,05,32,7.30
2012,07,05,05,33,7.30
2012,07,05,05,34,7.30
2012,07,05,05,35,7.30
2012,07,05,05,36,7.30
2012,07,05,05,37,7.30
2012,07,05,05,38,7.30
2012,07,05,05,39,7.30
2012,07,05,05,40,7.30
2012,07,05,05,41,7.30
2012,07,05,05,42,7.30
2012,07,05,05,43,7.30
2012,07,05,05,44,7.30
2012,07,05,05,45,7.30
2012,07,05,05,46,7.30
2012,07,05,05,47,7.30
2012,07,05,05,48,7.30
2012,07,05,05,49,7.30
2012,07,05,05,50,7.30
2012,07,05,05,51,7.30
2012,07,05,05,52,7.40
2012,07,05,05,54,7.40
2012,07,05,05,55,7.40
2012,07,05,05,56,7.40
2012,07,05,05,57,7.40
2012,07,05,05,58,7.40
2012,07,05,05,59,7.50
2012,07,05,06,00,7.50
2012,07,05,06,01,7.50
2012,07,05,06,02,7.60
2012,07,05,06,04,7.60
2012,07,05,06,07,7.70
2012,07,05,06,08,7.70
2012,07,05,06,09,7.70
2012,07,05,06,10,7.70
2012,07,05,06,11,7.70
2012,07,05,06,12,7.70
2012,07,05,06,13,7.70
2012,07,05,06,14,7.70
2012,07,05,06,15,7.70
2012,07,05,06,16,7.70
2012,07,05,06,17,7.70
2012,07,05,06,18,7.70
2012,07,05,06,19,7.70
2012,07,05,06,20,7.70
2012,07,05,06,21,7.70
2012,07,05,06,22,7.70
2012,07,05,06,23,7.70
2012,07,05,06,24,7.70
2012,07,05,06,25,7.70
2012,07,05,06,26,7.70
2012,07,05,06,27,7.70
2012,07,05,06,28,7.70
2012,07,05,06,39,7.70
2012,07,05,06,40,7.70
2012,07,05,06,41,7.70
2012,07,05,06,42,7.70
2012,07,05,06,43,7.80
2012,07,05,06,44,7.80
2012,07,05,06,45,7.80
2012,07,05,06,46,7.80
2012,07,05,06,47,7.80
2012,07,05,06,48,7.80
2012,07,05,06,50,7.90
2012,07,05,06,51,7.90
2012,07,05,06,52,7.90
2012,07,05,06,53,7.90
2012,07,05,06,54,7.90
2012,07,05,06,55,7.90
2012,07,05,06,56,8.00
2012,07,05,06,57,8.10
2012,07,05,06,58,8.10
2012,07,05,06,59,8.10
2012,07,05,07,00,8.20
2012,07,05,07,01,8.20
2012,07,05,07,02,8.20
2012,07,05,07,03,8.30
2012,07,05,07,05,8.30
2012,07,05,07,06,8.40
2012,07,05,07,07,8.50
2012,07,05,07,08,8.60
2012,07,05,07,09,8.60
2012,07,05,07,10,8.70
2012,07,05,07,11,8.70
2012,07,05,07,12,8.80
2012,07,05,07,13,8.80
2012,07,05,07,14,8.90
2012,07,05,07,15,8.90
2012,07,05,07,16,9.10
2012,07,05,07,17,9.10
2012,07,05,07,18,9.10
2012,07,05,07,19,9.20
2012,07,05,07,20,9.20
2012,07,05,07,21,9.20
2012,07,05,07,22,9.30
2012,07,05,07,23,9.30
2012,07,05,07,24,9.40
2012,07,05,07,25,9.40
2012,07,05,07,26,9.50
2012,07,05,07,27,9.60
2012,07,05,07,28,9.60
2012,07,05,07,29,9.60
2012,07,05,07,30,9.60
2012,07,05,07,31,9.60
2012,07,05,07,32,9.60
2012,07,05,07,33,9.60
2012,07,05,07,34,9.60
2012,07,05,07,35,9.60
2012,07,05,07,36,9.60
2012,07,05,07,37,9.60
2012,07,05,07,38,9.60
2012,07,05,07,39,9.60
2012,07,05,07,40,9.70
2012,07,05,07,41,9.70
2012,07,05,07,42,9.70
2012,07,05,07,43,9.70
2012,07,05,07,44,9.70
2012,07,05,07,45,9.70
2012,07,05,07,46,9.80
2012,07,05,07,47,9.80
2012,07,05,07,48,9.80
2012,07,05,07,49,9.90
2012,07,05,07,50,10.00
2012,07,05,07,51,10.10
2012,07,05,07,52,10.10
2012,07,05,07,53,10.20
2012,07,05,07,54,10.20
2012,07,05,07,55,10.20
2012,07,05,07,56,10.20
2012,07,05,07,57,10.30
2012,07,05,07,58,10.30
2012,07,05,07,59,10.30
2012,07,05,08,00,10.40
2012,07,05,08,01,10.40
2012,07,05,08,02,10.40
2012,07,05,08,03,10.40
2012,07,05,08,06,10.50
2012,07,05,08,07,10.50
2012,07,05,08,08,10.50
2012,07,05,08,09,10.60
2012,07,05,08,10,10.60
2012,07,05,08,11,10.60
2012,07,05,08,12,10.60
2012,07,05,08,13,10.60
2012,07,05,08,14,10.60
2012,07,05,08,15,10.70
2012,07,05,08,16,10.80
2012,07,05,08,17,10.80
2012,07,05,08,18,10.80
2012,07,05,08,19,10.90
2012,07,05,08,20,10.90
2012,07,05,08,21,10.90
2012,07,05,08,22,10.90
2012,07,05,08,23,11.00
2012,07,05,08,24,11.00
2012,07,05,08,25,11.00
2012,07,05,08,26,11.10
2012,07,05,08,27,11.10
2012,07,05,08,28,11.10
2012,07,05,08,29,11.20
2012,07,05,08,30,11.20
2012,07,05,08,31,11.20
2012,07,05,08,32,11.30
2012,07,05,08,33,11.30
2012,07,05,08,34,11.40
2012,07,05,08,35,11.40
2012,07,05,08,36,11.50
2012,07,05,08,37,11.50
2012,07,05,08,38,11.60
2012,07,05,08,39,11.60
2012,07,05,08,40,11.70
2012,07,05,08,41,11.70
2012,07,05,08,42,11.80
2012,07,05,08,43,11.90
2012,07,05,08,44,11.90
2012,07,05,08,45,12.00
2012,07,05,08,46,12.10
2012,07,05,08,48,12.10
2012,07,05,08,49,12.10
2012,07,05,08,50,12.10
2012,07,05,08,51,12.20
2012,07,05,08,52,12.20
2012,07,05,08,53,12.20
2012,07,05,08,54,12.20
2012,07,05,08,55,12.20
2012,07,05,08,56,12.20
2012,07,05,08,57,12.20
2012,07,05,08,58,12.30
2012,07,05,09,00,12.40
2012,07,05,09,01,12.40
2012,07,05,09,02,12.50
2012,07,05,09,03,12.60
2012,07,05,09,06,12.80
2012,07,05,09,07,12.80
2012,07,05,09,08,12.90
2012,07,05,09,09,12.90
2012,07,05,09,10,12.90
2012,07,05,09,11,13.00
2012,07,05,09,12,13.10
2012,07,05,09,13,13.10
2012,07,05,09,14,13.20
2012,07,05,09,15,13.30
2012,07,05,09,16,13.30
2012,07,05,09,17,13.40
2012,07,05,09,18,13.50
2012,07,05,09,19,13.60
2012,07,05,09,20,13.60
2012,07,05,09,21,13.70
2012,07,05,09,22,13.70
2012,07,05,09,23,13.80
2012,07,05,09,24,13.80
2012,07,05,09,25,13.80
2012,07,05,09,26,13.80
2012,07,05,09,27,13.80
2012,07,05,09,28,13.80
2012,07,05,09,29,13.80
2012,07,05,09,30,13.70
2012,07,05,09,31,13.70
2012,07,05,09,32,13.70
2012,07,05,09,33,13.70
2012,07,05,09,34,13.70
2012,07,05,09,35,13.70
2012,07,05,09,36,13.80
2012,07,05,09,37,13.80
2012,07,05,09,38,13.80
2012,07,05,09,39,13.90
2012,07,05,09,40,13.90
2012,07,05,09,41,13.90
2012,07,05,09,42,13.90
2012,07,05,09,43,14.00
2012,07,05,09,44,14.10
2012,07,05,09,45,14.20
2012,07,05,09,46,14.20
2012,07,05,09,47,14.20
2012,07,05,09,48,14.20
2012,07,05,09,49,14.20
2012,07,05,09,50,14.20
2012,07,05,09,51,14.30
2012,07,05,09,52,14.40
2012,07,05,09,53,14.40
2012,07,05,09,54,14.50
2012,07,05,09,55,14.60
2012,07,05,09,56,14.60
2012,07,05,09,57,14.60
2012,07,05,09,58,14.60
2012,07,05,09,59,14.50
2012,07,05,10,00,14.50
2012,07,05,10,01,14.40
2012,07,05,10,02,14.50
2012,07,05,10,03,14.50
2012,07,05,10,06,14.60
2012,07,05,10,07,14.60
2012,07,05,10,08,14.60
2012,07,05,10,09,14.70
2012,07,05,10,10,14.80
2012,07,05,10,11,14.80
2012,07,05,10,12,15.00
2012,07,05,10,13,15.00
2012,07,05,10,14,15.00
2012,07,05,10,15,15.10
2012,07,05,10,16,15.20
2012,07,05,10,17,15.20
2012,07,05,10,18,15.20
2012,07,05,10,19,15.20
2012,07,05,10,20,15.20
2012,07,05,10,21,15.20
2012,07,05,10,22,15.20
2012,07,05,10,23,15.30
2012,07,05,10,24,15.30
2012,07,05,10,25,15.40
2012,07,05,10,26,15.40
2012,07,05,10,27,15.60
2012,07,05,10,28,15.70
2012,07,05,10,29,15.80
2012,07,05,10,30,15.90
2012,07,05,10,31,16.10
2012,07,05,10,32,16.10
2012,07,05,10,33,16.20
2012,07,05,10,34,16.20
2012,07,05,10,35,16.30
2012,07,05,10,36,16.30
2012,07,05,10,37,16.40
2012,07,05,10,38,16.40
2012,07,05,10,39,16.40
2012,07,05,10,40,16.40
2012,07,05,10,41,16.40
2012,07,05,10,42,16.40
2012,07,05,10,43,16.40
2012,07,05,10,44,16.40
2012,07,05,10,45,16.40
2012,07,05,10,46,16.40
2012,07,05,10,47,16.40
2012,07,05,10,48,16.40
2012,07,05,10,49,16.40
2012,07,05,10,50,16.40
2012,07,05,10,51,16.40
2012,07,05,10,52,16.50
2012,07,05,10,53,16.50
2012,07,05,10,54,16.60
2012,07,05,10,55,16.60
2012,07,05,10,56,16.50
2012,07,05,10,57,16.50
2012,07,05,10,58,16.60
2012,07,05,10,59,16.60
2012,07,05,11,00,16.60
2012,07,05,11,01,16.60
2012,07,05,11,02,16.60
2012,07,05,11,03,16.60
2012,07,05,11,06,16.70
2012,07,05,11,07,16.70
2012,07,05,11,08,16.70
2012,07,05,11,09,16.70
2012,07,05,11,10,16.80
2012,07,05,11,11,16.80
2012,07,05,11,12,16.90
2012,07,05,11,14,17.10
2012,07,05,11,15,17.10
2012,07,05,11,16,17.20
2012,07,05,11,17,17.30
2012,07,05,11,18,17.40
2012,07,05,11,19,17.40
2012,07,05,11,20,17.40
2012,07,05,11,21,17.50
2012,07,05,11,22,17.60
2012,07,05,11,23,17.60
2012,07,05,11,24,17.60
2012,07,05,11,25,17.60
2012,07,05,11,26,17.60
2012,07,05,11,27,17.60
2012,07,05,11,28,17.70
2012,07,05,11,30,17.80
2012,07,05,11,31,17.80
2012,07,05,11,32,17.90
2012,07,05,11,33,17.90
2012,07,05,11,34,17.80
2012,07,05,11,35,17.80
2012,07,05,11,36,17.90
2012,07,05,11,37,17.90
2012,07,05,11,38,18.00
2012,07,05,11,39,18.10
2012,07,05,11,40,18.20
2012,07,05,11,41,18.20
2012,07,05,11,42,18.20
2012,07,05,11,43,18.20
2012,07,05,11,44,18.20
2012,07,05,11,45,18.30
2012,07,05,11,46,18.40
2012,07,05,11,47,18.40
2012,07,05,11,48,18.60
2012,07,05,11,49,18.70
2012,07,05,11,50,18.80
2012,07,05,11,51,18.90
2012,07,05,11,52,18.90
2012,07,05,11,53,19.00
2012,07,05,11,54,19.10
2012,07,05,11,55,19.20
2012,07,05,11,56,19.30
2012,07,05,11,57,19.30
2012,07,05,11,58,19.40
2012,07,05,11,59,19.40
2012,07,05,12,00,19.60
2012,07,05,12,01,19.70
2012,07,05,12,02,19.80
2012,07,05,12,03,19.90
2012,07,05,12,06,20.20
2012,07,05,12,07,20.30
2012,07,05,12,08,20.40
2012,07,05,12,09,20.50
2012,07,05,12,10,20.60
2012,07,05,12,11,20.80
2012,07,05,12,12,20.80
2012,07,05,12,14,20.80
2012,07,05,12,15,20.80
2012,07,05,12,16,20.70
2012,07,05,12,17,20.70
2012,07,05,12,18,20.70
2012,07,05,12,19,20.60
2012,07,05,12,20,20.60
2012,07,05,12,21,20.50
2012,07,05,12,22,20.40
2012,07,05,12,23,20.40
2012,07,05,12,24,20.40
2012,07,05,12,25,20.30
2012,07,05,12,26,20.30
2012,07,05,12,27,20.30
2012,07,05,12,28,20.30
2012,07,05,12,29,20.30
2012,07,05,12,30,20.30
2012,07,05,12,31,20.30
2012,07,05,12,32,20.40
2012,07,05,12,33,20.40
2012,07,05,12,34,20.40
2012,07,05,12,35,20.40
2012,07,05,12,36,20.40
2012,07,05,12,37,20.30
2012,07,05,12,38,20.40
2012,07,05,12,39,20.40
2012,07,05,12,40,20.40
2012,07,05,12,41,20.50
2012,07,05,12,42,20.50
2012,07,05,12,43,20.60
2012,07,05,12,44,20.60
2012,07,05,12,45,20.70
2012,07,05,12,46,20.70
2012,07,05,12,47,20.70
2012,07,05,12,48,20.80
2012,07,05,12,49,20.80
2012,07,05,12,50,20.80
2012,07,05,12,51,20.90
2012,07,05,12,52,20.90
2012,07,05,12,53,20.90
2012,07,05,12,54,20.90
2012,07,05,12,55,21.00
2012,07,05,12,56,21.10
2012,07,05,12,57,21.10
2012,07,05,12,58,21.10
2012,07,05,12,59,21.00
2012,07,05,13,00,21.00
2012,07,05,13,01,21.00
2012,07,05,13,02,21.00
2012,07,05,13,03,20.90
2012,07,05,13,07,20.90
2012,07,05,13,08,20.80
2012,07,05,13,09,20.80
2012,07,05,13,10,20.80
2012,07,05,13,11,20.90
2012,07,05,13,12,20.90
2012,07,05,13,13,21.00
2012,07,05,13,14,21.10
2012,07,05,13,15,21.10
2012,07,05,13,16,21.20
2012,07,05,13,17,21.20
2012,07,05,13,18,21.30
2012,07,05,13,19,21.40
2012,07,05,13,20,21.50
2012,07,05,13,21,21.50
2012,07,05,13,22,21.50
2012,07,05,13,23,21.60
2012,07,05,13,24,21.60
2012,07,05,13,25,21.60
2012,07,05,13,26,21.60
2012,07,05,13,27,21.60
2012,07,05,13,28,21.60
2012,07,05,13,29,21.60
2012,07,05,13,30,21.60
2012,07,05,13,31,21.70
2012,07,05,13,32,21.70
2012,07,05,13,33,21.80
2012,07,05,13,34,21.70
2012,07,05,13,35,21.80
2012,07,05,13,36,21.80
2012,07,05,13,37,21.80
2012,07,05,13,38,21.80
2012,07,05,13,39,21.80
2012,07,05,13,40,21.80
2012,07,05,13,41,21.80
2012,07,05,13,42,21.90
2012,07,05,13,44,22.00
2012,07,05,13,45,22.00
2012,07,05,13,46,22.10
2012,07,05,13,47,22.10
2012,07,05,13,49,22.00
2012,07,05,13,50,21.90
2012,07,05,13,51,21.90
2012,07,05,13,52,21.90
2012,07,05,13,53,21.90
2012,07,05,13,54,22.00
2012,07,05,13,55,22.10
2012,07,05,13,56,22.10
2012,07,05,13,57,22.10
2012,07,05,13,58,22.10
2012,07,05,13,59,22.10
2012,07,05,14,00,22.10
2012,07,05,14,01,22.20
2012,07,05,14,02,22.20
2012,07,05,14,03,22.10
2012,07,05,14,07,22.10
2012,07,05,14,08,22.10
2012,07,05,14,09,22.20
2012,07,05,14,10,22.20
2012,07,05,14,11,22.20
2012,07,05,14,12,22.10
2012,07,05,14,13,22.10
2012,07,05,14,14,22.10
2012,07,05,14,15,22.10
2012,07,05,14,16,22.10
2012,07,05,14,17,22.10
2012,07,05,14,18,22.00
2012,07,05,14,19,21.90
2012,07,05,14,20,22.00
2012,07,05,14,21,22.00
2012,07,05,14,22,22.00
2012,07,05,14,23,21.90
2012,07,05,14,24,22.00
2012,07,05,14,25,22.10
2012,07,05,14,26,22.10
2012,07,05,14,27,22.20
2012,07,05,14,28,22.20
2012,07,05,14,29,22.20
2012,07,05,14,30,22.30
2012,07,05,14,31,22.30
2012,07,05,14,32,22.40
2012,07,05,14,33,22.60
2012,07,05,14,34,22.70
2012,07,05,14,35,22.80
2012,07,05,14,36,22.80
2012,07,05,14,37,22.90
2012,07,05,14,38,22.90
2012,07,05,14,39,23.00
2012,07,05,14,40,23.00
2012,07,05,14,41,23.10
2012,07,05,14,42,23.10
2012,07,05,14,43,23.20
2012,07,05,14,44,23.20
2012,07,05,14,45,23.20
2012,07,05,14,46,23.20
2012,07,05,14,47,23.20
2012,07,05,14,48,23.10
2012,07,05,14,49,23.00
2012,07,05,14,50,23.00
2012,07,05,14,51,23.00
2012,07,05,14,52,23.00
2012,07,05,14,53,23.10
2012,07,05,14,54,23.10
2012,07,05,14,55,23.10
2012,07,05,14,56,23.10
2012,07,05,14,57,23.10
2012,07,05,14,58,23.10
2012,07,05,14,59,23.10
2012,07,05,15,00,23.10
2012,07,05,15,01,23.20
2012,07,05,15,02,23.20
2012,07,05,15,03,23.20
2012,07,05,15,07,23.20
2012,07,05,15,08,23.30
2012,07,05,15,09,23.30
2012,07,05,15,10,23.40
2012,07,05,15,11,23.40
2012,07,05,15,12,23.50
2012,07,05,15,13,23.60
2012,07,05,15,14,23.60
2012,07,05,15,15,23.60
2012,07,05,15,16,23.60
2012,07,05,15,17,23.70
2012,07,05,15,18,23.70
2012,07,05,15,19,23.70
2012,07,05,15,20,23.70
2012,07,05,15,21,23.70
2012,07,05,15,22,23.70
2012,07,05,15,23,23.80
2012,07,05,15,24,23.80
2012,07,05,15,25,23.80
2012,07,05,15,26,23.80
2012,07,05,15,27,23.80
2012,07,05,15,28,23.80
2012,07,05,15,29,23.80
2012,07,05,15,30,23.80
2012,07,05,15,31,23.80
2012,07,05,15,32,23.70
2012,07,05,15,33,23.70
2012,07,05,15,34,23.80
2012,07,05,15,35,23.80
2012,07,05,15,36,23.70
2012,07,05,15,37,23.70
2012,07,05,15,38,23.70
2012,07,05,15,39,23.60
2012,07,05,15,40,23.40
2012,07,05,15,41,23.40
2012,07,05,15,42,23.40
2012,07,05,15,43,23.40
2012,07,05,15,44,23.40
2012,07,05,15,45,23.40
2012,07,05,15,46,23.40
2012,07,05,15,47,23.60
2012,07,05,15,48,23.70
2012,07,05,15,49,23.70
2012,07,05,15,50,23.80
2012,07,05,15,51,23.80
2012,07,05,15,52,23.80
2012,07,05,15,53,23.80
2012,07,05,15,54,23.70
2012,07,05,15,55,23.70
2012,07,05,15,56,23.60
2012,07,05,15,57,23.60
2012,07,05,15,58,23.50
2012,07,05,15,59,23.50
2012,07,05,16,00,23.50
2012,07,05,16,01,23.50
2012,07,05,16,02,23.50
2012,07,05,16,03,23.50
2012,07,05,16,04,23.60
2012,07,05,16,08,23.70
2012,07,05,16,09,23.70
2012,07,05,16,10,23.80
2012,07,05,16,11,23.80
2012,07,05,16,12,23.90
2012,07,05,16,13,23.80
2012,07,05,16,14,23.90
2012,07,05,16,15,23.90
2012,07,05,16,16,23.90
2012,07,05,16,17,23.90
2012,07,05,16,18,23.90
2012,07,05,16,19,23.80
2012,07,05,16,20,23.80
2012,07,05,16,21,23.80
2012,07,05,16,22,23.90
2012,07,05,16,23,23.90
2012,07,05,16,24,23.90
2012,07,05,16,25,23.90
2012,07,05,16,26,23.90
2012,07,05,16,27,23.90
2012,07,05,16,28,24.00
2012,07,05,16,29,24.10
2012,07,05,16,30,24.10
2012,07,05,16,31,24.10
2012,07,05,16,32,24.00
2012,07,05,16,34,23.80
2012,07,05,16,35,23.80
2012,07,05,16,36,23.70
2012,07,05,16,37,23.70
2012,07,05,16,38,23.70
2012,07,05,16,39,23.70
2012,07,05,16,40,23.80
2012,07,05,16,41,23.80
2012,07,05,16,42,23.90
2012,07,05,16,43,23.90
2012,07,05,16,44,24.00
2012,07,05,16,45,24.10
2012,07,05,16,46,24.10
2012,07,05,16,47,24.20
2012,07,05,16,48,24.30
2012,07,05,16,49,24.30
2012,07,05,16,50,24.40
2012,07,05,16,51,24.40
2012,07,05,16,52,24.40
2012,07,05,16,53,24.40
2012,07,05,16,54,24.30
2012,07,05,16,55,24.30
2012,07,05,16,56,24.30
2012,07,05,16,57,24.30
2012,07,05,16,58,24.30
2012,07,05,16,59,24.30
2012,07,05,17,00,24.30
2012,07,05,17,01,24.40
2012,07,05,17,02,24.30
2012,07,05,17,03,24.30
2012,07,05,17,07,24.20
2012,07,05,17,08,24.10
2012,07,05,17,09,24.10
2012,07,05,17,10,24.10
2012,07,05,17,11,24.10
2012,07,05,17,12,24.10
2012,07,05,17,13,24.10
2012,07,05,17,14,24.10
2012,07,05,17,15,24.10
2012,07,05,17,16,24.10
2012,07,05,17,17,24.00
2012,07,05,17,18,23.90
2012,07,05,17,19,23.80
2012,07,05,17,20,23.80
2012,07,05,17,21,23.70
2012,07,05,17,22,23.70
2012,07,05,17,23,23.70
2012,07,05,17,24,23.80
2012,07,05,17,25,23.80
2012,07,05,17,26,23.80
2012,07,05,17,27,23.80
2012,07,05,17,28,23.80
2012,07,05,17,29,23.80
2012,07,05,17,30,23.80
2012,07,05,17,31,23.80
2012,07,05,17,32,23.80
2012,07,05,17,33,23.80
2012,07,05,17,34,23.80
2012,07,05,17,35,23.90
2012,07,05,17,36,23.80
2012,07,05,17,37,23.90
2012,07,05,17,38,23.90
2012,07,05,17,39,23.90
2012,07,05,17,40,24.00
2012,07,05,17,41,24.00
2012,07,05,17,42,24.00
2012,07,05,17,43,23.90
2012,07,05,17,44,23.90
2012,07,05,17,45,23.90
2012,07,05,17,46,23.90
2012,07,05,17,47,23.80
2012,07,05,17,48,23.70
2012,07,05,17,49,23.70
2012,07,05,17,50,23.70
2012,07,05,17,51,23.70
2012,07,05,17,52,23.70
2012,07,05,17,53,23.70
2012,07,05,17,54,23.80
2012,07,05,17,55,23.80
2012,07,05,17,56,23.80
2012,07,05,17,57,23.80
2012,07,05,17,58,23.80
2012,07,05,17,59,23.90
2012,07,05,18,00,23.90
2012,07,05,18,01,24.10
2012,07,05,18,02,24.10
2012,07,05,18,03,24.10
2012,07,05,18,04,24.00
2012,07,05,18,05,24.00
2012,07,05,18,09,23.90
2012,07,05,18,10,23.90
2012,07,05,18,11,24.00
2012,07,05,18,12,24.00
2012,07,05,18,13,23.90
2012,07,05,18,14,23.80
2012,07,05,18,15,23.70
2012,07,05,18,16,23.60
2012,07,05,18,17,23.50
2012,07,05,18,18,23.40
2012,07,05,18,19,23.30
2012,07,05,18,20,23.30
2012,07,05,18,21,23.30
2012,07,05,18,22,23.30
2012,07,05,18,23,23.30
2012,07,05,18,24,23.30
2012,07,05,18,25,23.30
2012,07,05,18,26,23.30
2012,07,05,18,27,23.40
2012,07,05,18,28,23.40
2012,07,05,18,29,23.40
2012,07,05,18,30,23.40
2012,07,05,18,31,23.30
2012,07,05,18,32,23.30
2012,07,05,18,33,23.20
2012,07,05,18,34,23.20
2012,07,05,18,35,23.20
2012,07,05,18,36,23.20
2012,07,05,18,37,23.20
2012,07,05,18,38,23.20
2012,07,05,18,39,23.20
2012,07,05,18,40,23.20
2012,07,05,18,42,23.10
2012,07,05,18,43,23.20
2012,07,05,18,44,23.20
2012,07,05,18,45,23.20
2012,07,05,18,46,23.20
2012,07,05,18,48,23.20
2012,07,05,18,49,23.20
2012,07,05,18,50,23.10
2012,07,05,18,51,23.10
2012,07,05,18,52,23.10
2012,07,05,18,53,22.90
2012,07,05,18,54,22.90
2012,07,05,18,56,22.60
2012,07,05,18,57,22.40
2012,07,05,18,58,22.30
2012,07,05,18,59,22.30
2012,07,05,19,00,22.20
2012,07,05,19,01,22.20
2012,07,05,19,02,22.10
2012,07,05,19,03,22.10
2012,07,05,19,06,21.90
2012,07,05,19,07,21.80
2012,07,05,19,08,21.80
2012,07,05,19,09,21.80
2012,07,05,19,10,21.70
2012,07,05,19,11,21.70
2012,07,05,19,13,21.70
2012,07,05,19,15,21.60
2012,07,05,19,16,21.60
2012,07,05,19,17,21.60
2012,07,05,19,18,21.60
2012,07,05,19,19,21.60
2012,07,05,19,20,21.50
2012,07,05,19,21,21.50
2012,07,05,19,22,21.40
2012,07,05,19,24,21.40
2012,07,05,19,25,21.40
2012,07,05,19,27,21.30
2012,07,05,19,28,21.40
2012,07,05,19,29,21.30
2012,07,05,19,30,21.30
2012,07,05,19,31,21.30
2012,07,05,19,32,21.30
2012,07,05,19,34,21.30
2012,07,05,19,35,21.30
2012,07,05,19,37,21.30
2012,07,05,19,38,21.30
2012,07,05,19,40,21.30
2012,07,05,19,41,21.20
2012,07,05,19,42,21.20
2012,07,05,19,43,21.20
2012,07,05,19,44,21.20
2012,07,05,19,45,21.10
2012,07,05,19,46,21.10